Printer-friendly version

IAU Minor Planet Center

Minor Planet Center

MPEC 2006-O47 : 2006 OE10

The following Minor Planet Electronic Circular may be linked-to from your own Web pages, but must not otherwise be redistributed electronically.


Read MPEC 2006-O46 Read MPEC 2006-O48


M.P.E.C. 2006-O47                                Issued 2006 July 26, 17:38 UT

     The Minor Planet Electronic Circulars contain information on unusual
         minor planets and routine data on comets.  They are published
   on behalf of Commission 20 of the International Astronomical Union by the
          Minor Planet Center, Smithsonian Astrophysical Observatory,
                          Cambridge, MA 02138, U.S.A.

                  Supported in part by the Brinson Foundation
                  Supported in part by the TABASGO Foundation
             Prepared using the Tamkin Foundation Computer Network

                              MPC@CFA.HARVARD.EDU
          URL http://cfa-www.harvard.edu/iau/mpc.html  ISSN 1523-6714

                                   2006 OE10

Observations:
     K06O10E* C2006 07 26.51949 21 06 53.85 -36 23 29.3          19.6 V EO047E12
     K06O10E  C2006 07 26.52976 21 07 00.22 -36 22 19.3          19.5 V EO047E12
     K06O10E  C2006 07 26.53999 21 07 06.74 -36 21 07.3          18.9 V EO047E12
     K06O10E  C2006 07 26.60259 21 07 45.16 -36 13 48.0                 EO047E12
     K06O10E  C2006 07 26.60312 21 07 45.54 -36 13 45.2                 EO047E12
     K06O10E  C2006 07 26.60365 21 07 45.67 -36 13 42.7          19.0 V EO047E12
     K06O10E  C2006 07 26.64735 21 08 12.44 -36 08 27.0          20.2 V EO047E12
     K06O10E  C2006 07 26.64788 21 08 12.76 -36 08 22.9          20.1 V EO047E12
     K06O10E  C2006 07 26.64841 21 08 13.11 -36 08 18.7          19.3 V EO047E12
     K06O10E  C2006 07 26.71623 21 08 54.58 -35 59 56.1          19.3 V EO047E12
     K06O10E  C2006 07 26.71677 21 08 55.02 -35 59 52.4                 EO047E12
     K06O10E  C2006 07 26.71732 21 08 55.30 -35 59 49.2          19.2 V EO047E12

Observer details:
E12 Siding Spring Survey.  Observer R. H. McNaught.  Measurers E. C. Beshore,
    E. J. Christensen, G. J. Garradd, A. R. Gibbs, A. D. Grauer, R. E. Hill,
    R. A. Kowalski, S. M. Larson, R. H. McNaught.  0.5-m Uppsala Schmidt + CCD.

Orbital elements:
2006 OE10                                                Earth MOID = 0.0516 AU
Epoch 2006 Sept. 22.0 TT = JDT 2454000.5                MPC
M  26.20871              (2000.0)            P               Q
n   0.44523338     Peri.  341.42368     +0.53107067     +0.84664061
a   1.6985470      Node   320.63437     -0.77043374     +0.46572793
e   0.3731270      Incl.    3.08294     -0.35269789     +0.25748236
P   2.21           H   24.8           G   0.15           U   9
Residuals in seconds of arc
060726 E12  0.0   0.2-    060726 E12  0.7+  0.1+    060726 E12  0.4+  0.2+
060726 E12  0.7-  0.6-    060726 E12  1.6-  1.2-    060726 E12  0.7-  0.6+
060726 E12  1.0+  0.9+    060726 E12  0.1+  0.4-    060726 E12  0.6+  0.2+
060726 E12  0.0   1.1+    060726 E12  0.1+  0.2-    060726 E12  0.1-  0.7-

Ephemeris:
2006 OE10                a,e,i = 1.70, 0.37, 3                   q = 1.0648
Date    TT    R. A. (2000) Decl.     Delta      r     Elong.  Phase     V
2006 07 24    20 35.93   -41 06.0    0.0524   1.065   158.3    20.7    19.6
2006 07 29    21 33.18   -31 17.1    0.0526   1.065   161.5    17.6    19.5
2006 08 03    22 14.47   -20 57.3    0.0570   1.069   160.2    18.8    19.7
2006 08 08    22 42.60   -12 07.8    0.0647   1.074   157.4    21.3    20.0
2006 08 13    23 01.42   -05 23.3    0.0748   1.082   155.6    22.8    20.4
2006 08 18    23 13.81   -00 29.9    0.0868   1.092   155.3    22.8    20.8
2006 08 23    23 21.77   +02 57.4    0.100    1.104   156.4    21.5    21.1
2006 08 28    23 26.73   +05 21.0    0.115    1.118   158.4    19.4    21.3
2006 09 02    23 29.70   +06 57.8    0.131    1.134   161.1    16.8    21.6
2006 09 07    23 31.41   +08 00.3    0.149    1.151   163.9    14.0    21.8
2006 09 12    23 32.34   +08 37.5    0.168    1.171   166.6    11.5    22.0

Timothy B. Spahr             (C) Copyright 2006 MPC           M.P.E.C. 2006-O47

Read MPEC 2006-O46 Read MPEC 2006-O48


Our Web policy. Index to the CBAT/MPC/ICQ pages.


Valid HTML 4.01!